Location: Bluff Heights
(33.7692°N, 118.1592°W)
Time: 18:47:10
(UTC+00:00)

AO-73 - Pass Details

Date: 01 October 2021
Orbit: 580 x 662 km, 97.6° (Epoch: 26 October)

Event Time Altitude Azimuth Distance (km) Brightness Sun altitude
Rises 11:51:16 0° 24° (NNE) 2,824 ? -24.8°
Reaches altitude 10° 11:53:39 10° 35° (NE) 1,910 ? -24.3°
Maximum altitude 11:57:17 29° 97° (E) 1,065 ? -23.6°
Drops below altitude 10° 12:00:52 10° 159° (SSE) 1,886 ? -22.8°
Sets 12:03:13 0° 170° (S) 2,781 ? -22.4°
